CW9461 Weather Reports


time (UTC)temp
F
wind
direction
speed
knots
gust
knots
rain 1hr
in
rain 24hr
in
rain mn
in
humidity
%
barometer
mb
20260904121605 57 135 0.0 0.0 0.00 0.17 0.00 95 1003.0
20260904120604 57 149 0.0 0.9 0.00 0.17 0.00 95 1003.0
20260904120104 57 157 0.0 2.6 0.00 0.17 0.00 95 1003.0
20260904115604 57 45 0.9 1.7 0.00 0.17 0.00 95 1003.0
20260904114605 57 112 0.0 0.0 0.00 0.17 0.00 95 1003.0
20260904114104 57 112 0.0 0.9 0.00 0.17 0.00 95 1003.0
20260904113605 57 78 0.0 0.9 0.00 0.17 0.00 95 1003.0
20260904113104 57 75 0.0 2.6 0.00 0.17 0.00 95 1003.0
20260904112604 57 82 0.0 0.0 0.00 0.17 0.00 95 1003.0
20260904112104 58 67 0.0 0.9 0.00 0.17 0.00 95 1003.0
20260904111605 57 67 0.0 1.7 0.00 0.17 0.00 95 1003.0
20260904110604 57 19 0.0 0.0 0.00 0.17 0.00 95 1003.0
20260904110104 57 0 0.0 0.0 0.00 0.17 0.00 94 1003.0
20260904105604 58 0 0.0 0.0 0.00 0.17 0.00 94 1003.0
20260904105105 58 247 0.0 0.0 0.00 0.17 0.00 94 1003.0
20260904104604 58 90 0.0 1.7 0.00 0.17 0.00 94 1003.0
20260904102604 58 337 0.0 0.0 0.00 0.17 0.00 94 1003.0
20260904102104 58 337 0.0 0.0 0.00 0.17 0.00 94 1003.0
20260904101605 59 337 0.0 0.0 0.00 0.17 0.00 94 1002.7
20260904101104 59 337 0.0 0.0 0.00 0.17 0.00 94 1002.7
20260904100104 59 202 0.0 0.0 0.00 0.17 0.00 94 1003.0
20260904095605 59 202 0.0 0.0 0.00 0.17 0.00 94 1003.0
20260904095104 59 202 0.0 0.0 0.00 0.17 0.00 94 1003.0
20260904094104 59 247 0.0 0.0 0.00 0.17 0.00 94 1002.7
20260904093604 60 247 0.0 0.0 0.00 0.17 0.00 94 1002.7
20260904093104 60 247 0.0 0.0 0.00 0.17 0.00 94 1002.7
20260904092604 60 247 0.0 0.0 0.00 0.17 0.00 94 1002.7
20260904092104 60 247 0.0 1.7 0.00 0.17 0.00 94 1002.7
20260904091604 60 247 0.0 1.7 0.00 0.17 0.00 94 1003.0
20260904091103 61 247 0.0 2.6 0.00 0.17 0.00 94 1002.7
20260904090604 61 315 0.0 0.0 0.00 0.17 0.00 94 1002.7
20260904090104 61 315 0.0 0.0 0.00 0.17 0.00 94 1002.7
20260904085603 61 315 0.0 0.0 0.00 0.17 0.00 94 1002.7
20260904084604 61 315 0.0 0.0 0.00 0.17 0.00 94 1002.7
20260904084104 61 315 0.0 0.0 0.00 0.17 0.00 94 1002.7
20260904083604 61 315 0.0 0.0 0.00 0.17 0.00 94 1002.7
20260904083105 61 315 0.0 0.0 0.00 0.17 0.00 94 1002.7
20260904082604 61 315 0.0 0.0 0.00 0.17 0.00 94 1002.7
20260904082104 61 315 0.0 0.0 0.00 0.17 0.00 94 1002.7
20260904081604 61 315 0.0 0.0 0.00 0.17 0.00 94 1002.7
20260904081104 61 315 0.0 0.0 0.00 0.17 0.00 94 1002.7
20260904080104 61 284 0.9 4.3 0.00 0.17 0.00 94 1002.7
20260904075604 61 246 0.9 4.3 0.00 0.17 0.00 95 1002.7
20260904075104 61 247 0.9 1.7 0.00 0.17 0.00 95 1002.7
20260904074604 61 249 1.7 2.6 0.00 0.17 0.00 95 1002.7
20260904074103 61 202 2.6 4.3 0.00 0.17 0.00 95 1002.7
20260904073104 61 337 0.0 0.0 0.00 0.17 0.00 95 1002.4
20260904072103 61 337 0.0 0.0 0.00 0.17 0.00 94 1002.7
20260904071604 61 337 0.0 0.0 0.00 0.17 0.00 94 1002.4
20260904071105 61 337 0.0 0.0 0.00 0.17 0.00 94 1002.4
20260904070603 61 337 0.0 0.0 0.00 0.17 0.00 94 1002.4
20260904070104 61 337 0.0 0.0 0.00 0.17 0.00 94 1002.4
20260904065604 61 67 0.0 0.0 0.00 0.17 0.17 94 1002.4
20260904065104 61 67 0.0 0.0 0.00 0.17 0.17 94 1002.4
20260904064603 61 67 0.0 0.9 0.00 0.17 0.17 94 1002.4
20260904064103 61 67 0.0 1.7 0.00 0.17 0.17 94 1002.4
20260904063604 61 67 0.9 0.9 0.00 0.17 0.17 95 1002.4
20260904063103 61 67 0.0 0.9 0.00 0.17 0.17 95 1002.4
20260904061606 61 216 0.0 0.9 0.00 0.17 0.17 95 1002.4
20260904061106 61 20 0.9 4.3 0.00 0.17 0.17 95 1002.4
20260904060605 61 247 0.0 0.0 0.00 0.17 0.17 95 1002.4
20260904060105 61 271 0.0 0.0 0.00 0.17 0.17 95 1002.4
20260904055605 61 292 0.0 0.0 0.00 0.17 0.17 95 1002.4
20260904055106 61 292 0.0 0.0 0.00 0.17 0.17 95 1002.4
20260904054606 61 270 0.0 2.6 0.00 0.17 0.17 95 1002.4
20260904054105 61 256 0.9 2.6 0.01 0.17 0.17 95 1002.4
20260904053606 61 250 1.7 4.3 0.02 0.17 0.17 95 1002.4
20260904053106 61 252 2.6 7.0 0.02 0.17 0.17 95 1002.4
20260904052606 61 255 1.7 7.0 0.03 0.17 0.17 95 1002.7
20260904052106 61 250 2.6 6.1 0.04 0.17 0.17 95 1002.7
20260904051605 61 241 1.7 5.2 0.05 0.17 0.17 95 1002.7
20260904051105 61 292 0.9 1.7 0.05 0.17 0.17 95 1002.7
20260904050606 60 315 0.9 4.3 0.06 0.17 0.17 95 1002.7
20260904050105 60 280 0.0 7.0 0.07 0.17 0.17 95 1002.7
20260904045105 60 211 1.7 4.3 0.09 0.17 0.17 95 1003.0
20260904044605 60 230 1.7 4.3 0.10 0.17 0.17 95 1003.0
20260904044105 60 241 2.6 8.7 0.09 0.16 0.16 95 1003.0
20260904043606 61 218 0.9 5.2 0.08 0.15 0.15 95 1003.0
20260904042605 61 258 0.9 2.6 0.07 0.14 0.14 95 1003.0
20260904042105 61 277 1.7 7.0 0.06 0.13 0.13 95 1002.7
20260904041605 61 226 1.7 5.2 0.05 0.12 0.12 94 1002.7
20260904041105 61 210 0.9 1.7 0.05 0.12 0.12 94 1002.7
20260904040606 61 249 0.9 4.3 0.05 0.11 0.11 94 1002.7
20260904040106 61 259 1.7 4.3 0.04 0.10 0.10 94 1002.7
20260904035605 61 237 0.9 4.3 0.03 0.09 0.09 94 1002.7
20260904035105 61 247 1.7 4.3 0.03 0.08 0.08 94 1002.7
20260904034605 61 235 1.7 4.3 0.03 0.07 0.07 94 1002.7
20260904034105 61 258 0.9 4.3 0.04 0.07 0.07 94 1002.7
20260904033605 61 260 0.9 4.3 0.04 0.07 0.07 94 1002.7
20260904033105 61 271 0.9 2.6 0.05 0.07 0.07 94 1002.4
20260904032106 61 231 1.7 7.8 0.07 0.07 0.07 93 1002.4
20260904031606 61 257 2.6 5.2 0.07 0.07 0.07 93 1002.4
20260904031105 61 243 2.6 6.1 0.07 0.07 0.07 93 1002.4
20260904030605 61 257 2.6 5.2 0.06 0.06 0.06 93 1002.4
20260904030105 61 254 1.7 4.3 0.06 0.06 0.06 92 1002.4
20260904025605 61 241 2.6 6.1 0.06 0.06 0.06 92 1002.4
20260904025106 61 249 2.6 6.1 0.05 0.05 0.05 91 1002.4
20260904024107 62 266 1.7 4.3 0.03 0.03 0.03 90 1002.4
20260904023605 62 268 2.6 7.8 0.03 0.03 0.03 90 1002.7
20260904023105 62 252 1.7 5.2 0.02 0.02 0.02 89 1002.4
20260904022604 63 264 1.7 5.2 0.01 0.01 0.01 88 1002.4
20260904022105 63 280 1.7 4.3 0.00 0.00 0.00 87 1002.4
20260904021606 64 273 2.6 5.2 0.00 0.00 0.00 86 1002.4
20260904020605 65 284 1.7 4.3 0.00 0.00 0.00 84 1002.7
20260904020107 66 290 1.7 2.6 0.00 0.00 0.00 83 1002.7
20260904015107 67 263 1.7 4.3 0.00 0.00 0.00 82 1002.7
20260904014605 67 225 0.0 1.7 0.00 0.00 0.00 81 1002.4
20260904014106 67 255 1.7 5.2 0.00 0.00 0.00 80 1002.4
20260904013605 68 217 0.9 4.3 0.00 0.00 0.00 79 1002.4
20260904012605 68 246 1.7 7.0 0.00 0.00 0.00 78 1002.4
20260904012104 68 234 1.7 6.1 0.00 0.00 0.00 77 1002.4
20260904011605 68 247 1.7 4.3 0.00 0.00 0.00 76 1002.7
20260904011105 68 236 2.6 11.3 0.00 0.00 0.00 76 1002.4
20260904010606 68 229 2.6 6.1 0.00 0.00 0.00 76 1002.4
20260904010107 68 247 1.7 5.2 0.00 0.00 0.00 75 1002.7
20260904005605 69 221 2.6 5.2 0.00 0.00 0.00 74 1002.7
20260904005106 69 250 2.6 7.0 0.00 0.00 0.00 73 1002.4
20260904004605 69 241 1.7 6.1 0.00 0.00 0.00 73 1002.4
20260904004105 69 241 2.6 6.1 0.00 0.00 0.00 73 1002.4
20260904002606 69 152 1.7 5.2 0.00 0.00 0.00 71 1002.4
20260904002105 69 244 2.6 6.1 0.00 0.00 0.00 71 1002.4
20260904001105 70 273 1.7 6.1 0.00 0.00 0.00 71 1002.4
20260904000105 70 225 2.6 6.1 0.00 0.00 0.00 71 1002.7
20260903235605 70 226 2.6 8.7 0.00 0.00 0.00 70 1002.4
20260903235106 70 227 1.7 5.2 0.00 0.00 0.00 70 1002.4
20260903234604 70 207 2.6 7.0 0.00 0.00 0.00 69 1002.4
20260903234105 70 246 2.6 7.0 0.00 0.00 0.00 68 1002.7
20260903233605 71 240 2.6 6.1 0.00 0.00 0.00 67 1002.7
20260903233105 71 263 2.6 7.0 0.00 0.00 0.00 67 1002.7
20260903232605 71 247 1.7 5.2 0.00 0.00 0.00 67 1002.4
20260903232106 71 241 1.7 6.1 0.00 0.00 0.00 66 1002.7
20260903231606 71 241 3.5 7.0 0.00 0.00 0.00 65 1002.7
20260903231105 72 242 4.3 7.8 0.00 0.00 0.00 64 1002.7
20260903230606 72 232 2.6 7.0 0.00 0.00 0.00 64 1002.7
20260903230105 72 225 2.6 7.0 0.00 0.00 0.00 64 1003.0
20260903225605 73 254 2.6 6.1 0.00 0.00 0.00 63 1003.0
20260903224605 73 235 4.3 7.8 0.00 0.00 0.00 62 1003.0
20260903224106 74 232 2.6 6.1 0.00 0.00 0.00 62 1003.0
20260903223605 74 153 1.7 7.0 0.00 0.00 0.00 62 1003.0
20260903223105 74 230 2.6 7.0 0.00 0.00 0.00 61 1003.0
20260903222605 75 239 2.6 7.8 0.00 0.00 0.00 60 1003.0
20260903222104 75 236 2.6 7.0 0.00 0.00 0.00 61 1003.0
20260903221605 74 214 4.3 7.0 0.00 0.00 0.00 61 1003.0
20260903221105 74 227 4.3 12.2 0.00 0.00 0.00 61 1003.4
20260903220605 74 238 4.3 7.8 0.00 0.00 0.00 61 1003.3
20260903220104 74 247 4.3 7.8 0.00 0.00 0.00 62 1003.3
20260903214605 74 211 2.6 7.0 0.00 0.00 0.00 63 1003.4
20260903213604 74 230 2.6 7.0 0.00 0.00 0.00 63 1003.4
20260903213104 74 192 1.7 7.0 0.00 0.00 0.00 63 1003.4
20260903212605 74 216 2.6 7.0 0.00 0.00 0.00 63 1003.4
20260903212106 74 186 0.9 4.3 0.00 0.00 0.00 63 1003.7
20260903211606 73 230 1.7 6.1 0.00 0.00 0.00 64 1003.7
20260903211105 73 210 1.7 6.1 0.00 0.00 0.00 64 1003.7
20260903210105 73 227 4.3 8.7 0.00 0.00 0.00 65 1003.7
20260903205606 72 227 3.5 8.7 0.00 0.00 0.00 65 1004.0
20260903204605 72 236 2.6 5.2 0.00 0.00 0.00 66 1004.0
20260903204105 72 164 1.7 8.7 0.00 0.00 0.00 66 1003.7
20260903203606 71 246 2.6 6.1 0.00 0.00 0.00 66 1004.1
20260903203105 72 219 2.6 7.0 0.00 0.00 0.00 66 1003.8
20260903202605 72 232 3.5 7.0 0.00 0.00 0.00 66 1004.1
20260903202104 72 226 0.9 5.2 0.00 0.00 0.00 65 1004.1
20260903201605 72 257 1.7 7.8 0.00 0.00 0.00 65 1004.1
20260903201105 72 179 1.7 4.3 0.00 0.00 0.00 64 1004.1
20260903200605 72 176 1.7 6.1 0.00 0.00 0.00 64 1004.1
20260903200105 72 147 1.7 7.8 0.00 0.00 0.00 63 1004.1
20260903195604 72 171 2.6 5.2 0.00 0.00 0.00 63 1004.4
20260903195104 72 218 2.6 7.0 0.00 0.00 0.00 63 1004.1
20260903194605 72 185 0.9 6.1 0.00 0.00 0.00 63 1004.4
20260903193605 73 145 2.6 5.2 0.00 0.00 0.00 61 1004.4
20260903193106 73 143 0.9 2.6 0.00 0.00 0.00 61 1004.4
20260903192605 73 157 1.7 4.3 0.00 0.00 0.00 61 1004.4
20260903192105 73 150 1.7 5.2 0.00 0.00 0.00 60 1004.7
20260903191604 73 219 2.6 5.2 0.00 0.00 0.00 60 1004.7
20260903191104 73 335 0.9 7.8 0.00 0.00 0.00 60 1004.7
20260903190605 74 184 2.6 6.1 0.00 0.00 0.00 60 1004.4
20260903190105 74 215 1.7 12.2 0.00 0.00 0.00 59 1004.7
20260903185604 75 241 3.5 8.7 0.00 0.00 0.00 57 1004.7
20260903185104 75 160 1.7 6.1 0.00 0.00 0.00 57 1004.7
20260903184605 76 196 1.7 5.2 0.00 0.00 0.00 57 1004.7
20260903184105 76 201 2.6 6.1 0.00 0.00 0.00 57 1004.7
20260903182605 74 156 2.6 7.0 0.00 0.00 0.00 59 1004.7
20260903182104 73 163 1.7 4.3 0.00 0.00 0.00 61 1004.7
20260903181606 72 247 2.6 6.1 0.00 0.00 0.00 62 1004.7
20260903181105 71 288 1.7 7.0 0.00 0.00 0.00 63 1004.7
20260903180105 71 197 1.7 7.0 0.00 0.00 0.00 63 1004.7
20260903175604 70 129 2.6 7.0 0.00 0.00 0.00 63 1004.7
20260903175105 70 137 2.6 8.7 0.00 0.00 0.00 63 1004.7
20260903174605 71 109 1.7 4.3 0.00 0.00 0.00 63 1004.7
20260903174105 71 169 1.7 10.4 0.00 0.00 0.00 62 1004.7
20260903173604 71 157 1.7 6.1 0.00 0.00 0.00 63 1004.7
20260903172605 71 199 2.6 7.8 0.00 0.00 0.00 63 1005.0
20260903172105 71 148 2.6 7.0 0.00 0.00 0.00 64 1004.8
20260903171605 70 123 2.6 7.8 0.00 0.00 0.00 65 1005.1
20260903171104 70 125 2.6 7.8 0.00 0.00 0.00 66 1005.1
20260903170605 69 134 2.6 10.4 0.00 0.00 0.00 67 1005.1
20260903170105 69 160 1.7 5.2 0.00 0.00 0.00 68 1005.1
20260903165104 68 151 1.7 6.1 0.00 0.00 0.00 70 1005.1
20260903164105 67 147 0.9 6.1 0.00 0.00 0.00 71 1005.1
20260903163104 66 210 0.9 2.6 0.00 0.00 0.00 73 1005.4
20260903162105 66 153 2.6 7.8 0.00 0.00 0.00 73 1005.4
20260903161606 66 143 2.6 7.0 0.00 0.00 0.00 73 1005.4
20260903161104 66 170 1.7 5.2 0.00 0.00 0.00 74 1005.4
20260903160604 66 137 0.9 4.3 0.00 0.00 0.00 74 1005.8
20260903160104 65 209 1.7 4.3 0.00 0.00 0.00 75 1005.7
20260903155604 65 192 0.9 2.6 0.00 0.00 0.00 75 1005.7
20260903154604 65 140 1.7 5.2 0.00 0.00 0.00 76 1005.4
20260903154104 65 130 1.7 5.2 0.00 0.00 0.00 76 1005.8
20260903153605 64 157 0.9 7.0 0.00 0.00 0.00 76 1005.4
20260903152604 64 150 1.7 5.2 0.00 0.00 0.00 77 1005.4
20260903152104 64 125 2.6 5.2 0.00 0.00 0.00 78 1005.4
20260903151604 64 142 1.7 5.2 0.00 0.00 0.00 78 1005.7
20260903151104 64 122 1.7 5.2 0.00 0.00 0.00 78 1005.7
20260903150604 64 124 1.7 5.2 0.00 0.00 0.00 79 1005.8
20260903145104 63 145 2.6 5.2 0.00 0.00 0.00 80 1005.7
20260903144605 63 132 1.7 5.2 0.00 0.00 0.00 81 1005.4
20260903144104 62 155 1.7 5.2 0.00 0.00 0.00 81 1005.4
20260903143604 62 130 1.7 4.3 0.00 0.00 0.00 82 1005.4
20260903143104 62 138 1.7 5.2 0.00 0.00 0.00 82 1005.4
20260903142604 62 133 1.7 2.6 0.00 0.00 0.00 82 1005.4
20260903142105 62 145 1.7 4.3 0.00 0.00 0.00 82 1005.5
20260903141605 62 128 1.7 4.3 0.00 0.00 0.00 83 1005.4
20260903141104 62 112 1.7 4.3 0.00 0.00 0.00 83 1005.4
20260903140604 62 136 1.7 2.6 0.00 0.00 0.00 83 1005.4
20260903140104 62 127 0.9 4.3 0.00 0.00 0.00 83 1005.4
20260903135604 62 138 1.7 4.3 0.00 0.00 0.00 83 1005.4
20260903135104 61 112 1.7 5.2 0.00 0.00 0.00 83 1005.4
20260903134604 61 131 1.7 4.3 0.00 0.00 0.00 84 1005.4
20260903134104 61 143 1.7 4.3 0.00 0.00 0.00 84 1005.4
20260903133104 62 134 1.7 2.6 0.00 0.00 0.00 84 1005.4
20260903132604 62 135 1.7 5.2 0.00 0.00 0.00 84 1005.4
20260903132104 62 144 1.7 1.7 0.00 0.00 0.00 83 1005.4
20260903131604 62 125 1.7 2.6 0.00 0.00 0.00 83 1005.1
20260903130604 62 156 1.7 2.6 0.00 0.00 0.00 83 1005.2
20260903125604 62 157 1.7 2.6 0.00 0.00 0.00 82 1005.3
20260903125104 62 138 2.6 6.1 0.00 0.00 0.00 82 1005.4
20260903124604 62 130 1.7 7.0 0.00 0.00 0.00 82 1005.4
20260903124103 62 135 0.9 4.3 0.00 0.00 0.00 82 1005.4
20260903123604 62 145 0.9 2.6 0.00 0.00 0.00 82 1005.4
20260903123104 62 129 1.7 5.2 0.00 0.00 0.00 82 1005.7
20260903122603 62 157 0.9 2.6 0.00 0.00 0.00 82 1005.8